Location: Trois-Rivi�res
(46.3500°N, 72.5500°W)
Time: 19:13:03
(UTC-04:00)

Vanguard 1 Rocket - All Passes

Search period start: 21 October 2017 00:00
Search period end: 31 October 2017 00:00
Orbit: 655 x 4222 km, 34.3° (Epoch: 21 October)

Date Brightness Start Highest point End Pass type
(mag) Time Alt. Az. Time Alt. Az. Time Alt. Az.
21 Oct - 05:49:11 10° S 05:52:44 12° SSE 05:55:41 10° SE visible
21 Oct - 08:12:37 10° SW 08:17:44 21° S 08:21:32 10° SE daylight
21 Oct - 10:38:28 10° SW 10:41:49 18° S 10:44:54 10° SE daylight
22 Oct - 07:00:58 10° SSW 07:06:58 20° S 07:11:14 10° ESE daylight
22 Oct - 09:26:56 10° SW 09:31:25 22° S 09:35:00 10° SE daylight
22 Oct - 11:54:10 10° SW 11:55:17 11° SSW 11:56:23 10° S daylight
23 Oct - 05:49:26 10° SSW 05:55:55 18° SSE 06:00:34 10° ESE visible
23 Oct - 08:15:03 10° SW 08:20:54 25° S 08:25:01 10° SE daylight
23 Oct - 10:41:47 10° WSW 10:44:53 16° SSW 10:47:42 10° SSE daylight
24 Oct - 04:38:34 10° S 04:44:33 15° SSE 04:49:07 10° SE visible
24 Oct - 07:02:54 10° SW 07:10:09 25° S 07:14:56 10° ESE daylight
24 Oct - 09:29:52 10° WSW 09:34:31 22° SSW 09:38:09 10° SE daylight
25 Oct - 03:30:19 10° SSE 03:32:50 11° SSE 03:35:06 10° SE visible
25 Oct - 05:50:38 10° SSW 05:59:05 23° SSE 06:04:36 10° ESE visible
25 Oct - 08:17:39 10° WSW 08:24:02 27° S 08:28:23 10° SE daylight
25 Oct - 10:45:20 10° SW 10:47:53 14° SSW 10:50:14 10° S daylight
26 Oct - 04:38:38 10° SSW 04:47:41 20° SSE 04:53:48 10° ESE visible
26 Oct - 07:05:05 10° SW 07:13:18 29° S 07:18:28 10° ESE daylight
26 Oct - 09:32:54 10° WSW 09:37:35 21° SSW 09:41:12 10° SSE daylight
27 Oct - 03:27:33 10° S 03:35:54 16° SSE 03:42:04 10° ESE visible
27 Oct - 05:52:16 10° SW 06:02:15 29° S 06:08:18 10° ESE visible
27 Oct - 08:20:22 10° WSW 08:27:08 28° S 08:31:39 10° SE daylight
27 Oct - 10:49:27 10° SW 10:50:50 11° SSW 10:52:08 10° SSW daylight
28 Oct - 02:19:14 10° SSE 02:23:48 11° SSE 02:27:47 10° SE visible
28 Oct - 04:39:30 10° SSW 04:50:48 26° SSE 04:57:49 10° ESE visible
28 Oct - 07:07:27 10° WSW 07:16:25 33° S 07:21:52 10° ESE daylight
28 Oct - 09:36:02 10° WSW 09:40:34 19° SSW 09:44:05 10° SSE daylight
29 Oct - 03:27:16 10° SSW 03:38:57 22° SSE 03:46:43 10° ESE visible
29 Oct - 05:54:10 10° SW 06:05:21 34° S 06:11:50 10° ESE visible
29 Oct - 08:23:09 10° WSW 08:30:11 28° SSW 08:34:49 10° SE daylight
30 Oct - 02:16:22 10° S 02:26:46 17° SSE 02:34:28 10° ESE visible
30 Oct - 04:40:48 10° SW 04:53:52 32° SSE 05:01:31 10° ESE visible
30 Oct - 07:09:55 10° WSW 07:19:31 35° S 07:25:10 10° ESE daylight
30 Oct - 09:39:20 10° WSW 09:43:29 17° SSW 09:46:45 10° S daylight
